| time (UTC) | temp C | wind direction | speed KPH | gust KPH | rain 1hr cm | rain 24hr cm | rain mn cm | humidity % | barometer mb |
| 20260504110506 | 6 | 257 | 4.8 | 11.3 | 0.00 | 0.03 | 0.03 | 76 | 1007.1 |
| 20260504100503 | 6 | 273 | 1.6 | 12.9 | 0.00 | 0.03 | 0.03 | 83 | 1007.2 |
| 20260504081540 | 5 | 278 | 4.8 | 11.3 | 0.00 | 0.00 | 0.00 | 81 | 1007.4 |
| 20260504081011 | 5 | 231 | 8.0 | 12.9 | 0.00 | 0.00 | 0.00 | 81 | 1007.4 |
| 20260504080510 | 5 | 274 | 3.2 | 12.9 | 0.00 | 0.00 | 0.00 | 81 | 1007.4 |
| 20260504050506 | 5 | 276 | 4.8 | 12.9 | 0.00 | 0.00 | 0.00 | 62 | 1007.9 |
| 20260504050023 | 5 | 288 | 1.6 | 12.9 | 0.00 | 0.00 | 0.00 | 61 | 1007.9 |
| 20260504045505 | 5 | 284 | 6.4 | 12.9 | 0.00 | 0.00 | 0.00 | 59 | 1007.9 |
| 20260504045006 | 5 | 237 | 4.8 | 9.7 | 0.00 | 0.00 | 0.00 | 57 | 1007.9 |
| 20260504044525 | 5 | 252 | 3.2 | 9.7 | 0.00 | 0.00 | 0.00 | 57 | 1008.0 |
| 20260504044012 | 5 | 271 | 3.2 | 9.7 | 0.00 | 0.00 | 0.00 | 55 | 1008.0 |
| 20260504043508 | 5 | 257 | 3.2 | 9.7 | 0.00 | 0.00 | 0.00 | 54 | 1008.0 |
| 20260504043037 | 5 | 272 | 1.6 | 9.7 | 0.00 | 0.00 | 0.00 | 53 | 1008.1 |
| 20260504042510 | 5 | 266 | 4.8 | 12.9 | 0.00 | 0.00 | 0.00 | 52 | 1008.1 |
| 20260504042014 | 5 | 252 | 6.4 | 17.7 | 0.00 | 0.00 | 0.00 | 52 | 1008.1 |
| 20260504041527 | 5 | 290 | 4.8 | 17.7 | 0.00 | 0.00 | 0.00 | 52 | 1008.1 |
| 20260504041005 | 5 | 266 | 4.8 | 11.3 | 0.00 | 0.00 | 0.00 | 52 | 1008.2 |
| 20260504040508 | 5 | 285 | 4.8 | 9.7 | 0.00 | 0.00 | 0.00 | 54 | 1008.2 |
| 20260504040022 | 5 | 252 | 4.8 | 9.7 | 0.00 | 0.00 | 0.00 | 53 | 1008.2 |
| 20260504035505 | 5 | 270 | 3.2 | 6.4 | 0.00 | 0.00 | 0.00 | 51 | 1008.2 |
| 20260504035006 | 5 | 18 | 3.2 | 6.4 | 0.00 | 0.00 | 0.00 | 51 | 1008.1 |
| 20260504034524 | 5 | 285 | 3.2 | 14.5 | 0.00 | 0.00 | 0.00 | 50 | 1008.2 |
| 20260504034003 | 5 | 198 | 4.8 | 14.5 | 0.00 | 0.00 | 0.00 | 51 | 1008.1 |
| 20260504033501 | 4 | 227 | 0.0 | 4.8 | 0.00 | 0.00 | 0.00 | 51 | 1008.1 |
| 20260504033008 | 4 | 242 | 0.0 | 4.8 | 0.00 | 0.00 | 0.00 | 52 | 1008.2 |
| 20260504032504 | 3 | 261 | 0.0 | 4.8 | 0.00 | 0.00 | 0.00 | 52 | 1008.2 |
| 20260504032004 | 3 | 242 | 0.0 | 3.2 | 0.00 | 0.00 | 0.00 | 52 | 1008.2 |
| 20260504031510 | 3 | 278 | 0.0 | 3.2 | 0.00 | 0.00 | 0.00 | 52 | 1008.1 |
| 20260504031005 | 3 | 133 | 0.0 | 3.2 | 0.00 | 0.00 | 0.00 | 53 | 1008.1 |
| 20260504030505 | 3 | 198 | 0.0 | 1.6 | 0.00 | 0.00 | 0.00 | 53 | 1008.2 |
| 20260504030024 | 3 | 112 | 0.0 | 1.6 | 0.00 | 0.00 | 0.00 | 54 | 1008.2 |
| 20260504025508 | 3 | 111 | 0.0 | 1.6 | 0.00 | 0.00 | 0.00 | 54 | 1008.2 |
| 20260504025005 | 3 | 111 | 0.0 | 1.6 | 0.00 | 0.00 | 0.00 | 54 | 1008.2 |
| 20260504024517 | 3 | 147 | 0.0 | 1.6 | 0.00 | 0.00 | 0.00 | 55 | 1008.2 |
| 20260504024007 | 3 | 147 | 0.0 | 0.0 | 0.00 | 0.00 | 0.00 | 54 | 1008.3 |
| 20260504023508 | 3 | 147 | 0.0 | 0.0 | 0.00 | 0.00 | 0.00 | 54 | 1008.3 |
| 20260504023022 | 3 | 212 | 0.0 | 3.2 | 0.00 | 0.00 | 0.00 | 53 | 1008.4 |
| 20260504022501 | 4 | 233 | 0.0 | 3.2 | 0.00 | 0.00 | 0.00 | 53 | 1008.4 |
| 20260504022003 | 3 | 271 | 0.0 | 1.6 | 0.00 | 0.00 | 0.00 | 54 | 1008.5 |
| 20260504021504 | 4 | 271 | 0.0 | 1.6 | 0.00 | 0.00 | 0.00 | 53 | 1008.5 |
| 20260504021003 | 4 | 259 | 0.0 | 4.8 | 0.00 | 0.00 | 0.00 | 53 | 1008.5 |
| 20260504020502 | 5 | 260 | 0.0 | 9.7 | 0.00 | 0.00 | 0.00 | 51 | 1008.5 |
| 20260504020014 | 5 | 280 | 3.2 | 9.7 | 0.00 | 0.00 | 0.00 | 51 | 1008.5 |
| 20260504015503 | 4 | 270 | 0.0 | 4.8 | 0.00 | 0.00 | 0.00 | 54 | 1008.5 |
| 20260504015006 | 4 | 225 | 0.0 | 4.8 | 0.00 | 0.00 | 0.00 | 53 | 1008.6 |
| 20260504014521 | 4 | 274 | 0.0 | 3.2 | 0.00 | 0.00 | 0.00 | 54 | 1008.6 |
| 20260504014005 | 5 | 263 | 0.0 | 6.4 | 0.00 | 0.00 | 0.00 | 54 | 1008.6 |
| 20260504013504 | 5 | 262 | 1.6 | 6.4 | 0.00 | 0.00 | 0.00 | 52 | 1008.5 |
| 20260504013032 | 4 | 256 | 1.6 | 6.4 | 0.00 | 0.00 | 0.00 | 52 | 1008.5 |
| 20260504012507 | 3 | 260 | 1.6 | 3.2 | 0.00 | 0.00 | 0.00 | 55 | 1008.5 |
| 20260504012007 | 3 | 279 | 0.0 | 1.6 | 0.00 | 0.00 | 0.00 | 56 | 1008.5 |
| 20260504011524 | 3 | 293 | 0.0 | 3.2 | 0.00 | 0.00 | 0.00 | 57 | 1008.4 |
| 20260504011008 | 3 | 293 | 0.0 | 3.2 | 0.00 | 0.00 | 0.00 | 55 | 1008.4 |
| 20260504010503 | 3 | 153 | 0.0 | 0.0 | 0.00 | 0.00 | 0.00 | 58 | 1008.3 |
| 20260504010007 | 3 | 153 | 0.0 | 0.0 | 0.00 | 0.00 | 0.00 | 58 | 1008.2 |
| 20260504005505 | 4 | 266 | 0.0 | 0.0 | 0.00 | 0.00 | 0.00 | 57 | 1008.1 |
| 20260504005006 | 4 | 266 | 0.0 | 0.0 | 0.00 | 0.00 | 0.00 | 56 | 1008.0 |
| 20260504004510 | 5 | 266 | 0.0 | 1.6 | 0.00 | 0.00 | 0.00 | 54 | 1008.0 |
| 20260504004006 | 5 | 267 | 0.0 | 3.2 | 0.00 | 0.00 | 0.00 | 53 | 1008.0 |
| 20260504003506 | 5 | 253 | 1.6 | 3.2 | 0.00 | 0.00 | 0.00 | 52 | 1008.0 |
| 20260504003016 | 5 | 256 | 1.6 | 3.2 | 0.00 | 0.00 | 0.00 | 51 | 1007.8 |
| 20260504002506 | 5 | 273 | 0.0 | 3.2 | 0.00 | 0.00 | 0.00 | 52 | 1007.9 |
| 20260504002006 | 6 | 264 | 1.6 | 3.2 | 0.00 | 0.00 | 0.00 | 51 | 1007.9 |
| 20260504001522 | 5 | 285 | 1.6 | 3.2 | 0.00 | 0.00 | 0.00 | 51 | 1007.8 |
| 20260504001007 | 6 | 280 | 0.0 | 1.6 | 0.00 | 0.00 | 0.00 | 50 | 1007.7 |
| 20260504000506 | 6 | 278 | 0.0 | 1.6 | 0.00 | 0.00 | 0.00 | 51 | 1007.7 |
| 20260504000024 | 6 | 278 | 0.0 | 1.6 | 0.00 | 0.00 | 0.00 | 50 | 1007.8 |
| 20260503235507 | 6 | 278 | 1.6 | 1.6 | 0.00 | 0.00 | 0.00 | 51 | 1007.7 |
| 20260503235007 | 6 | 278 | 1.6 | 1.6 | 0.00 | 0.00 | 0.00 | 51 | 1007.6 |
| 20260503234508 | 6 | 278 | 1.6 | 1.6 | 0.00 | 0.00 | 0.00 | 52 | 1007.6 |
| 20260503234004 | 6 | 274 | 1.6 | 1.6 | 0.00 | 0.00 | 0.00 | 54 | 1007.7 |
| 20260503233504 | 6 | 274 | 1.6 | 1.6 | 0.00 | 0.00 | 0.00 | 52 | 1007.6 |
| 20260503233018 | 6 | 274 | 0.0 | 1.6 | 0.00 | 0.00 | 0.00 | 54 | 1007.6 |
| 20260503232502 | 6 | 274 | 0.0 | 3.2 | 0.00 | 0.00 | 0.00 | 53 | 1007.6 |
| 20260503232010 | 6 | 274 | 0.0 | 3.2 | 0.00 | 0.00 | 0.00 | 52 | 1007.5 |
| 20260503231519 | 6 | 276 | 0.0 | 1.6 | 0.00 | 0.00 | 0.00 | 53 | 1007.5 |
| 20260503231006 | 6 | 276 | 0.0 | 1.6 | 0.00 | 0.00 | 0.00 | 51 | 1007.5 |
| 20260503230509 | 6 | 276 | 0.0 | 3.2 | 0.00 | 0.03 | 0.00 | 51 | 1007.5 |
| 20260503230020 | 6 | 276 | 0.0 | 3.2 | 0.00 | 0.03 | 0.00 | 51 | 1007.5 |
| 20260503225506 | 6 | 280 | 1.6 | 1.6 | 0.00 | 0.03 | 0.00 | 51 | 1007.5 |
| 20260503225010 | 6 | 280 | 0.0 | 3.2 | 0.00 | 0.03 | 0.00 | 53 | 1007.5 |
| 20260503224525 | 6 | 280 | 0.0 | 3.2 | 0.00 | 0.03 | 0.00 | 50 | 1007.5 |
| 20260503224009 | 6 | 262 | 0.0 | 4.8 | 0.00 | 0.03 | 0.00 | 53 | 1007.6 |
| 20260503223509 | 6 | 247 | 1.6 | 4.8 | 0.00 | 0.03 | 0.00 | 50 | 1007.6 |
| 20260503223007 | 6 | 287 | 1.6 | 4.8 | 0.00 | 0.03 | 0.00 | 50 | 1007.5 |
| 20260503222504 | 7 | 281 | 3.2 | 3.2 | 0.00 | 0.05 | 0.00 | 51 | 1007.5 |
| 20260503222006 | 7 | 269 | 1.6 | 4.8 | 0.00 | 0.05 | 0.00 | 50 | 1007.5 |
| 20260503221510 | 7 | 278 | 0.0 | 4.8 | 0.00 | 0.05 | 0.00 | 50 | 1007.5 |
| 20260503221009 | 7 | 281 | 1.6 | 4.8 | 0.00 | 0.05 | 0.00 | 47 | 1007.5 |
| 20260503220504 | 7 | 274 | 1.6 | 4.8 | 0.00 | 0.05 | 0.00 | 48 | 1007.5 |
| 20260503220016 | 7 | 264 | 1.6 | 6.4 | 0.00 | 0.05 | 0.00 | 47 | 1007.5 |
| 20260503215506 | 7 | 295 | 1.6 | 6.4 | 0.00 | 0.05 | 0.00 | 50 | 1007.4 |
| 20260503215009 | 7 | 314 | 1.6 | 4.8 | 0.00 | 0.05 | 0.00 | 47 | 1007.4 |
| 20260503214522 | 7 | 281 | 1.6 | 4.8 | 0.00 | 0.05 | 0.00 | 47 | 1007.4 |
| 20260503214007 | 7 | 295 | 1.6 | 9.7 | 0.00 | 0.05 | 0.00 | 47 | 1007.4 |
| 20260503213507 | 7 | 287 | 3.2 | 9.7 | 0.00 | 0.05 | 0.00 | 46 | 1007.3 |
| 20260503213025 | 7 | 115 | 1.6 | 8.0 | 0.00 | 0.05 | 0.00 | 47 | 1007.4 |
| 20260503212507 | 7 | 300 | 3.2 | 8.0 | 0.00 | 0.05 | 0.00 | 46 | 1007.4 |
| 20260503212010 | 7 | 304 | 3.2 | 8.0 | 0.00 | 0.05 | 0.00 | 48 | 1007.4 |
| 20260503211526 | 7 | 231 | 0.0 | 6.4 | 0.00 | 0.05 | 0.00 | 47 | 1007.3 |
| 20260503211004 | 7 | 293 | 3.2 | 6.4 | 0.00 | 0.05 | 0.00 | 48 | 1007.3 |
| 20260503210503 | 7 | 322 | 1.6 | 6.4 | 0.00 | 0.05 | 0.00 | 48 | 1007.3 |
| 20260503210014 | 7 | 242 | 3.2 | 6.4 | 0.00 | 0.05 | 0.00 | 48 | 1007.3 |
| 20260503205506 | 7 | 288 | 1.6 | 4.8 | 0.00 | 0.05 | 0.00 | 49 | 1007.3 |
| 20260503205007 | 7 | 311 | 0.0 | 9.7 | 0.00 | 0.05 | 0.00 | 51 | 1007.3 |
| 20260503204520 | 7 | 282 | 3.2 | 9.7 | 0.00 | 0.05 | 0.00 | 51 | 1007.3 |
| 20260503204008 | 6 | 276 | 4.8 | 8.0 | 0.00 | 0.05 | 0.00 | 52 | 1007.4 |
| 20260503203511 | 6 | 285 | 1.6 | 8.0 | 0.00 | 0.05 | 0.00 | 50 | 1007.4 |
| 20260503203042 | 6 | 303 | 4.8 | 8.0 | 0.00 | 0.05 | 0.00 | 50 | 1007.4 |
| 20260503202507 | 6 | 9 | 4.8 | 8.0 | 0.00 | 0.05 | 0.00 | 49 | 1007.4 |
| 20260503202011 | 7 | 281 | 1.6 | 8.0 | 0.00 | 0.05 | 0.00 | 51 | 1007.4 |
| 20260503201526 | 6 | 297 | 1.6 | 8.0 | 0.00 | 0.05 | 0.00 | 52 | 1007.4 |
| 20260503201009 | 6 | 338 | 3.2 | 9.7 | 0.00 | 0.05 | 0.00 | 51 | 1007.4 |
| 20260503200512 | 6 | 352 | 1.6 | 9.7 | 0.00 | 0.05 | 0.00 | 51 | 1007.5 |
| 20260503200026 | 6 | 283 | 1.6 | 9.7 | 0.00 | 0.05 | 0.00 | 52 | 1007.6 |
| 20260503195505 | 6 | 224 | 4.8 | 9.7 | 0.00 | 0.05 | 0.00 | 52 | 1007.5 |
| 20260503195005 | 6 | 328 | 1.6 | 9.7 | 0.00 | 0.05 | 0.00 | 55 | 1007.6 |
| 20260503194531 | 6 | 291 | 3.2 | 9.7 | 0.00 | 0.05 | 0.00 | 51 | 1007.7 |
| 20260503194006 | 6 | 293 | 3.2 | 9.7 | 0.00 | 0.05 | 0.00 | 53 | 1007.8 |
| 20260503193508 | 6 | 298 | 6.4 | 11.3 | 0.00 | 0.05 | 0.00 | 52 | 1007.8 |
| 20260503193020 | 6 | 301 | 4.8 | 12.9 | 0.00 | 0.05 | 0.00 | 51 | 1007.8 |
| 20260503192508 | 6 | 281 | 8.0 | 12.9 | 0.00 | 0.05 | 0.00 | 53 | 1007.8 |
| 20260503192007 | 6 | 286 | 4.8 | 12.9 | 0.00 | 0.05 | 0.00 | 51 | 1007.9 |
| 20260503191524 | 6 | 285 | 4.8 | 12.9 | 0.00 | 0.05 | 0.00 | 52 | 1007.9 |
| 20260503191009 | 6 | 264 | 4.8 | 8.0 | 0.00 | 0.05 | 0.00 | 53 | 1007.9 |
| 20260503190508 | 7 | 292 | 3.2 | 9.7 | 0.00 | 0.05 | 0.00 | 51 | 1008.0 |
| 20260503190036 | 7 | 335 | 1.6 | 9.7 | 0.00 | 0.05 | 0.00 | 52 | 1008.0 |
| 20260503185506 | 7 | 311 | 1.6 | 4.8 | 0.00 | 0.05 | 0.00 | 57 | 1008.0 |
| 20260503185005 | 6 | 283 | 1.6 | 8.0 | 0.00 | 0.05 | 0.00 | 56 | 1008.1 |
| 20260503184522 | 6 | 289 | 1.6 | 8.0 | 0.00 | 0.05 | 0.00 | 57 | 1008.1 |
| 20260503184006 | 5 | 287 | 4.8 | 9.7 | 0.00 | 0.05 | 0.00 | 54 | 1008.1 |
| 20260503183505 | 5 | 281 | 4.8 | 11.3 | 0.00 | 0.05 | 0.00 | 57 | 1008.1 |
| 20260503183017 | 5 | 281 | 3.2 | 11.3 | 0.00 | 0.05 | 0.00 | 55 | 1008.1 |
| 20260503182506 | 5 | 273 | 4.8 | 9.7 | 0.00 | 0.05 | 0.00 | 55 | 1008.1 |
| 20260503182007 | 5 | 288 | 6.4 | 17.7 | 0.00 | 0.05 | 0.00 | 53 | 1008.0 |
| 20260503181520 | 6 | 295 | 9.7 | 17.7 | 0.00 | 0.05 | 0.00 | 52 | 1008.0 |
| 20260503181008 | 6 | 272 | 6.4 | 14.5 | 0.00 | 0.05 | 0.00 | 52 | 1008.0 |
| 20260503180507 | 6 | 278 | 1.6 | 12.9 | 0.00 | 0.05 | 0.00 | 51 | 1008.1 |
| 20260503180026 | 6 | 9 | 3.2 | 9.7 | 0.00 | 0.05 | 0.00 | 51 | 1008.1 |
| 20260503175508 | 6 | 248 | 3.2 | 12.9 | 0.00 | 0.05 | 0.00 | 54 | 1008.1 |
| 20260503175003 | 6 | 293 | 8.0 | 12.9 | 0.00 | 0.05 | 0.00 | 52 | 1008.1 |
| 20260503174509 | 6 | 294 | 6.4 | 11.3 | 0.00 | 0.05 | 0.00 | 52 | 1008.1 |
| 20260503174004 | 6 | 279 | 6.4 | 14.5 | 0.00 | 0.05 | 0.00 | 53 | 1008.1 |
| 20260503173503 | 6 | 325 | 8.0 | 14.5 | 0.00 | 0.05 | 0.00 | 52 | 1008.2 |
| 20260503173012 | 6 | 311 | 1.6 | 4.8 | 0.00 | 0.05 | 0.00 | 54 | 1008.2 |
| 20260503172505 | 6 | 277 | 1.6 | 14.5 | 0.00 | 0.05 | 0.00 | 53 | 1008.3 |
| 20260503172011 | 6 | 347 | 3.2 | 14.5 | 0.00 | 0.05 | 0.00 | 52 | 1008.3 |
| 20260503171516 | 6 | 290 | 6.4 | 12.9 | 0.00 | 0.05 | 0.00 | 55 | 1008.2 |
| 20260503171007 | 6 | 312 | 4.8 | 12.9 | 0.00 | 0.05 | 0.00 | 55 | 1008.2 |
| 20260503170506 | 6 | 272 | 3.2 | 11.3 | 0.00 | 0.05 | 0.00 | 56 | 1008.4 |
| 20260503151004 | 6 | 262 | 6.4 | 17.7 | 0.00 | 0.05 | 0.00 | 48 | 1008.7 |
| 20260503150504 | 7 | 304 | 8.0 | 19.3 | 0.00 | 0.05 | 0.00 | 46 | 1008.9 |
| 20260503131007 | 3 | 321 | 4.8 | 9.7 | 0.00 | 0.05 | 0.00 | 77 | 1009.6 |
| 20260503130513 | 3 | 320 | 4.8 | 11.3 | 0.00 | 0.05 | 0.00 | 77 | 1009.6 |